• In Hungary
  • List of Countries
  • For 7 days
  • Water Temperature
  • Satellite Maps
  • Weather Map
  • News
  • Weather Widgets
  • user-avatar
    Login

    Hourly Weather Veselyy Vtoroy

    Today, 21 October, Sunday

    Time Temperature Precipitation Wind Pressure Humidity
    00:00 +8°C° 0 mm 5 mps 739 mmHg 50%
    01:00 +7°C° 0 mm 5 mps 739 mmHg 53%
    02:00 +7°C° 0 mm 4 mps 739 mmHg 56%
    03:00 +6°C° 0 mm 4 mps 739 mmHg 60%
    04:00 +7°C° 0 mm 3 mps 739 mmHg 63%
    05:00 +7°C° 0 mm 3 mps 740 mmHg 66%
    06:00 +7°C° 0 mm 3 mps 740 mmHg 70%
    07:00 +7°C° 0 mm 2 mps 740 mmHg 73%
    08:00 +8°C° 0 mm 2 mps 741 mmHg 72%
    09:00 +9°C° 0 mm 3 mps 741 mmHg 70%
    10:00 +10°C° 0 mm 3 mps 741 mmHg 68%
    11:00 +10°C° 0 mm 3 mps 742 mmHg 62%
    12:00 +11°C° 0 mm 3 mps 742 mmHg 56%
    13:00 +12°C° 0 mm 3 mps 742 mmHg 50%
    14:00 +11°C° 0 mm 3 mps 742 mmHg 49%
    15:00 +11°C° 0 mm 4 mps 742 mmHg 49%
    16:00 +11°C° 0 mm 4 mps 743 mmHg 48%
    17:00 +10°C° 0 mm 3 mps 743 mmHg 52%
    18:00 +8°C° 0 mm 3 mps 743 mmHg 57%
    19:00 +7°C° 0 mm 3 mps 744 mmHg 62%
    20:00 +7°C° 0 mm 3 mps 744 mmHg 65%
    21:00 +5°C° 0 mm 3 mps 744 mmHg 68%
    22:00 +4°C° 0 mm 3 mps 745 mmHg 72%
    23:00 +4°C° 0 mm 3 mps 745 mmHg 73%

    Tomorrow, 22 October, Monday

    Time Temperature Precipitation Wind Pressure Humidity
    00:00 +3°C° 0 mm 3 mps 745 mmHg 75%
    01:00 +4°C° 0 mm 2 mps 745 mmHg 76%
    02:00 +3°C° 0 mm 2 mps 746 mmHg 77%
    03:00 +3°C° 0 mm 2 mps 746 mmHg 77%
    04:00 +3°C° 0 mm 2 mps 746 mmHg 78%
    05:00 +2°C° 0 mm 2 mps 746 mmHg 78%
    06:00 +2°C° 0 mm 2 mps 746 mmHg 79%
    07:00 +2°C° 0 mm 2 mps 746 mmHg 80%
    08:00 +3°C° 0 mm 2 mps 747 mmHg 73%
    09:00 +4°C° 0 mm 2 mps 747 mmHg 66%
    10:00 +4°C° 0 mm 3 mps 747 mmHg 60%
    11:00 +6°C° 0 mm 2 mps 747 mmHg 55%
    12:00 +7°C° 0 mm 2 mps 747 mmHg 50%
    13:00 +8°C° 0 mm 2 mps 747 mmHg 44%
    14:00 +8°C° 0 mm 2 mps 747 mmHg 43%
    15:00 +8°C° 0 mm 2 mps 747 mmHg 42%
    16:00 +8°C° 0 mm 2 mps 747 mmHg 41%
    17:00 +7°C° 0 mm 2 mps 747 mmHg 44%
    18:00 +6°C° 0 mm 2 mps 747 mmHg 47%
    19:00 +5°C° 0 mm 2 mps 747 mmHg 50%
    20:00 +4°C° 0 mm 2 mps 747 mmHg 51%
    21:00 +4°C° 0 mm 2 mps 747 mmHg 53%
    22:00 +3°C° 0 mm 2 mps 747 mmHg 55%
    23:00 +3°C° 0 mm 2 mps 747 mmHg 56%

    Day after tomorrow, 23 October, Tuesday

    Time Temperature Precipitation Wind Pressure Humidity
    00:00 +3°C° 0 mm 2 mps 747 mmHg 58%
    01:00 +3°C° 0 mm 2 mps 747 mmHg 60%
    02:00 +2°C° 0 mm 2 mps 747 mmHg 62%
    03:00 +2°C° 0 mm 2 mps 747 mmHg 64%
    04:00 +2°C° 0 mm 2 mps 747 mmHg 65%
    05:00 +2°C° 0 mm 2 mps 747 mmHg 67%
    06:00 +1°C° 0 mm 2 mps 747 mmHg 68%
    07:00 0°C° 0 mm 3 mps 746 mmHg 69%
    08:00 +2°C° 0 mm 3 mps 746 mmHg 64%
    09:00 +4°C° 0 mm 3 mps 746 mmHg 58%
    10:00 +5°C° 0 mm 4 mps 746 mmHg 53%
    11:00 +7°C° 0 mm 4 mps 746 mmHg 50%
    12:00 +8°C° 0 mm 4 mps 745 mmHg 47%
    13:00 +11°C° 0 mm 4 mps 745 mmHg 44%
    14:00 +11°C° 0 mm 4 mps 745 mmHg 46%
    15:00 +11°C° 0 mm 4 mps 744 mmHg 47%
    16:00 +12°C° 0 mm 4 mps 744 mmHg 48%
    17:00 +11°C° 0 mm 4 mps 743 mmHg 52%
    18:00 +8°C° 0 mm 4 mps 743 mmHg 57%
    19:00 +7°C° 0 mm 4 mps 743 mmHg 61%
    20:00 +7°C° 0 mm 5 mps 742 mmHg 63%
    21:00 +7°C° 0 mm 5 mps 742 mmHg 65%
    22:00 +7°C° 0 mm 6 mps 742 mmHg 67%
    23:00 +7°C° 0 mm 6 mps 742 mmHg 67%

    24 October, Wednesday

    Time Temperature Precipitation Wind Pressure Humidity
    00:00 +7°C° 0 mm 6 mps 741 mmHg 66%
    01:00 +8°C° 0 mm 6 mps 741 mmHg 66%
    02:00 +7°C° 0 mm 6 mps 741 mmHg 66%
    03:00 +7°C° 0 mm 6 mps 741 mmHg 66%
    04:00 +7°C° 0 mm 6 mps 740 mmHg 65%
    05:00 +7°C° 0 mm 6 mps 740 mmHg 64%
    06:00 +7°C° 0 mm 6 mps 740 mmHg 62%
    07:00 +6°C° 0 mm 7 mps 740 mmHg 60%
    08:00 +6°C° 0 mm 7 mps 739 mmHg 56%
    09:00 +8°C° 0 mm 7 mps 739 mmHg 52%
    10:00 +9°C° 0 mm 8 mps 739 mmHg 47%
    11:00 +10°C° 0 mm 8 mps 739 mmHg 45%
    12:00 +11°C° 0 mm 8 mps 739 mmHg 43%
    13:00 +12°C° 0 mm 8 mps 738 mmHg 41%
    14:00 +12°C° 0 mm 7 mps 738 mmHg 42%
    15:00 +13°C° 0 mm 6 mps 738 mmHg 42%
    16:00 +13°C° 0 mm 6 mps 737 mmHg 43%
    17:00 +11°C° 0 mm 6 mps 737 mmHg 45%
    18:00 +11°C° 0 mm 6 mps 737 mmHg 47%
    19:00 +10°C° 0 mm 6 mps 737 mmHg 50%
    20:00 +10°C° 0 mm 6 mps 738 mmHg 52%
    21:00 +9°C° 0 mm 6 mps 738 mmHg 55%
    22:00 +9°C° 0 mm 6 mps 738 mmHg 57%
    23:00 +9°C° 0 mm 6 mps 738 mmHg 59%

    25 October, Thursday

    Time Temperature Precipitation Wind Pressure Humidity
    00:00 +9°C° 0 mm 5 mps 738 mmHg 61%
    01:00 +9°C° 0 mm 5 mps 738 mmHg 63%
    02:00 +8°C° 0 mm 5 mps 737 mmHg 65%
    03:00 +8°C° 0 mm 5 mps 737 mmHg 66%
    04:00 +7°C° 0 mm 5 mps 737 mmHg 68%
    05:00 +7°C° 0 mm 5 mps 737 mmHg 67%
    06:00 +7°C° 0 mm 6 mps 737 mmHg 65%
    07:00 +5°C° 0 mm 6 mps 737 mmHg 64%
    08:00 +8°C° 0 mm 7 mps 737 mmHg 57%
    09:00 +9°C° 0 mm 7 mps 737 mmHg 50%
    10:00 +10°C° 0 mm 8 mps 737 mmHg 43%
    11:00 +12°C° 0 mm 8 mps 737 mmHg 38%
    12:00 +13°C° 0 mm 8 mps 736 mmHg 34%
    13:00 +16°C° 0 mm 9 mps 736 mmHg 30%
    14:00 +15°C° 0 mm 8 mps 736 mmHg 30%
    15:00 +15°C° 0 mm 8 mps 736 mmHg 30%
    16:00 +15°C° 0 mm 7 mps 735 mmHg 30%
    17:00 +13°C° 0 mm 8 mps 735 mmHg 32%
    18:00 +12°C° 0 mm 8 mps 735 mmHg 33%
    19:00 +11°C° 0 mm 8 mps 735 mmHg 35%
    20:00 +11°C° 0 mm 8 mps 735 mmHg 36%
    21:00 +11°C° 0 mm 9 mps 734 mmHg 37%
    22:00 +10°C° 0 mm 9 mps 734 mmHg 38%
    23:00 +10°C° 0 mm 9 mps 734 mmHg 38%

    26 October, Friday

    Time Temperature Precipitation Wind Pressure Humidity
    00:00 +10°C° 0 mm 9 mps 733 mmHg 38%
    01:00 +10°C° 0 mm 9 mps 733 mmHg 38%
    02:00 +10°C° 0 mm 9 mps 733 mmHg 38%
    03:00 +10°C° 0 mm 9 mps 732 mmHg 38%
    04:00 +11°C° 0 mm 9 mps 732 mmHg 38%
    05:00 +11°C° 0.1 mm 9 mps 732 mmHg 38%
    06:00 +11°C° 0.1 mm 10 mps 731 mmHg 39%
    07:00 +11°C° 0.1 mm 10 mps 731 mmHg 39%
    08:00 +12°C° 0 mm 10 mps 730 mmHg 38%
    09:00 +14°C° 0 mm 10 mps 730 mmHg 37%
    10:00 +16°C° 0 mm 11 mps 730 mmHg 36%
    11:00 +17°C° 0 mm 10 mps 730 mmHg 35%
    12:00 +17°C° 0 mm 9 mps 729 mmHg 35%
    13:00 +18°C° 0 mm 9 mps 729 mmHg 34%
    14:00 +18°C° 0 mm 8 mps 729 mmHg 37%
    15:00 +18°C° 0 mm 7 mps 729 mmHg 39%
    16:00 +19°C° 0 mm 6 mps 729 mmHg 42%
    17:00 +17°C° 0 mm 6 mps 729 mmHg 48%
    18:00 +16°C° 0 mm 6 mps 729 mmHg 55%
    19:00 +16°C° 0 mm 6 mps 729 mmHg 61%
    20:00 +15°C° 0.1 mm 5 mps 730 mmHg 64%
    21:00 +14°C° 0.1 mm 5 mps 730 mmHg 67%
    22:00 +13°C° 0.1 mm 4 mps 730 mmHg 71%
    23:00 +12°C° 0 mm 5 mps 730 mmHg 73%
    Show more